Hourly Data Report for March 26, 2015

All times are specified in Local Standard Time (LST). Add 1 hour to adjust for Daylight Saving Time where and when it is observed.

MIRAMICHI RCS
NEW BRUNSWICK

47°00'34.000" N
65°27'54.000" W
33.00 m
8100989
71744
ACQ

Download Data

Hourly Data (March 2015)
Hourly Data Report for March 26, 2015
TIME Temp Definition
°C
Dew Point Definition
°C
Rel Hum Definition
%
Wind Dir Definition
10's deg

Wind Spd Definition
km/h
Visibility Definition
km
Stn Press Definition
kPa
Hmdx Definition


Wind Chill Definition


Weather Definition


00:00 -1.8 -8.7 59 19 17   101.42   -7 LegendNANA
01:00 -1.9 -8.6 60 20 14   101.26   -7 LegendNANA
02:00 -1.3 -8.8 57 19 18   101.07   -7 LegendNANA
03:00 -0.3 -6.6 63 20 19   100.96   -5 LegendNANA
04:00 -0.3 -3.1 82 21 23   100.76   -6 LegendNANA
05:00 0.4 -2.1 83 22 21   100.68     LegendNANA
06:00 0.8 -0.9 89 21 25   100.54     LegendNANA
07:00 1.6 -0.4 87 22 30   100.47     LegendNANA
08:00 2.1 0.2 87 22 34   100.38     LegendNANA
09:00 2.6 0.5 86 22 34   100.34     LegendNANA
10:00 3.2 0.8 84 24 29   100.35     LegendNANA
11:00 3.4 0.9 84 22 26   100.26     LegendNANA
12:00 5.2 1.0 74 23 29   100.15     LegendNANA
13:00 6.2 1.0 69 23 31   100.05     LegendNANA
14:00 6.4 1.1 69 23 32   100.00     LegendNANA
15:00 6.9 1.3 67 23 26   99.97     LegendNANA
16:00 6.6 1.4 69 23 23   100.02     LegendNANA
17:00 5.7 0.9 71 23 19   99.99     LegendNANA
18:00 5.0 0.9 75 22 14   99.97     LegendNANA
19:00 4.9 1.9 81 22 29   99.93     LegendNANA
20:00 4.8 1.9 82 25 17   99.99     LegendNANA
21:00 3.6 0.9 83 24 13   99.92     LegendNANA
22:00 3.2 1.0 85 24 12   99.95     LegendNANA
23:00 2.4 0.5 87 24 11   99.95     LegendNANA

Notes on Data Quality.

Legend

  • E = Estimated
  • M = Missing
  • NA = Not Available
Date modified: